Regional Weather Roundup
Issued by NWS Burlington, VT

Home | Current Version | Previous Version | Text Only | Print | Product List | Glossary On
Versions: 1 2 3 4 5 6 7 8 9 10 11 12 13 14 15 16 17 18 19 20 21 22 23 24 25 26 27 28 29 30 31 32 33 34 35 36 37 38 39 40 41 42 43 44 45 46 47 48 49 50
000
ASUS41 KBTV 302130
RWRBTV
VERMONT REGIONAL WEATHER ROUNDUP
NATIONAL WEATHER SERVICE BURLINGTON VT
500 PM EDT SAT MAY 30 2015

NOTE: "FAIR" INDICATES FEW OR NO CLOUDS BELOW 12,000 FEET WITH NO
SIGNIFICANT WEATHER AND/OR OBSTRUCTIONS TO VISIBILITY.

* THESE REPORTS ARE NOT UNDER NWS QUALITY CONTROL AND/OR DO NOT
  REPORT WEATHER SUCH AS PRECIPITATION AND FOG.

VTZ001>019-302200-
_____VERMONT_____


CITY           SKY/WX    TMP DP  RH WIND       PRES   REMARKS
BURLINGTON     MOCLDY    85  65  51 S16G29    29.88S
MONTPELIER     PTCLDY    82  62  50 SW12G20   29.99F
MORRISVILLE    PTCLDY    87  62  43 SW13G23   29.92F
ST. JOHNSBURY*   N/A     86  61  42 MISG      29.91F
LYNDONVILLE*     N/A     84  59  42 S14G26    29.95F
MIDDLEBURY*      N/A     81  65  57 S15G28    29.94F
RUTLAND*       MOCLDY    73  66  78 SE8       29.98F
SPRINGFIELD    MOCLDY    82  64  54 S5        29.99F
HIGHGATE*      CLOUDY    83  66  56 S9G21     29.85S
NEWPORT*         N/A     81  64  55 SW16G23   29.91S
BENNINGTON     LGT RAIN  77  70  79 CALM      30.01F
MT. MANSFIELD*   N/A     68 N/A N/A CALM        N/A

_____LAKE CHAMPLAIN_____


CITY           SKY/WX    TMP DP  RH WIND       PRES   REMARKS
BURTON ISLAND*   N/A     73  63  68 S14         N/A
COLCHESTER RF*   N/A     68  59  73 SW26        N/A
DIAMOND ISL*     N/A     82  66  57 S25         N/A

$$

NYZ007-026>031-035-052-083-302200-
_____NORTHERN NEW YORK_____


CITY           SKY/WX    TMP DP  RH WIND       PRES   REMARKS
PLATTSBURGH    MOCLDY    88  61  40 S8G17     29.85F
SARANAC LAKE   MOCLDY    73  67  81 SW10      29.96R
MASSENA        PTCLDY    85  63  47 SW16G30   29.86R
OGDENSBURG*    MOCLDY    77  63  61 W9        29.90R
POTSDAM*       MOCLDY    82  66  57 W18G29    29.89R
WATERTOWN      CLOUDY    82  66  58 SW10      29.90S
FT DRUM        PTCLDY    84  68  59 SW16      29.90F
ALBANY         MOCLDY    82  67  60 S9        29.98F
GLENS FALLS    MOCLDY    76  71  85 S7        29.96F

$$
NHZ002-005-011-302200-
_____NEW HAMPSHIRE_____


CITY           SKY/WX    TMP DP  RH WIND       PRES   REMARKS
LEBANON        PTCLDY    83  66  56 S16G24    29.96F
KEENE          PTCLDY    84  64  51 SW13G24   30.01F
MT WASHINGTON  MOCLDY    59  54  82 W40G49      N/A
PLYMOUTH         N/A     85  69  58 SW9G18    29.96S
WHITEFIELD     PTCLDY    84  62  47 SW8G17    29.94F

$$

_____REGIONAL QUEBEC LOCATIONS_____


CITY           SKY/WX    TMP DP  RH WIND       PRES   REMARKS
MONTREAL       MOCLDY    79  66  65 NW17      29.84R
QUEBEC CITY    MOCLDY    77  66  69 SW17G24   29.74F
SHERBROOKE     RAIN      77  68  73 SW8G17    29.87S

_____REGIONAL ONTARIO LOCATIONS_____


CITY           SKY/WX    TMP DP  RH WIND       PRES   REMARKS
OTTAWA         LGT RAIN  72  70  94 SW12G18   29.87R

______KEY______
VSB  - VISIBILITY IN MILES
WCI  - WIND CHILL INDEX
HX   - HEAT INDEX
$$
NNNN



USA.gov is the U.S. government's official web portal to all federal, state and local government web resources and services.